Flag for Germany Weather past 2 weeks in Bingen am Rhein, Rhineland-Palatinate, Germany

Now
55 °F

Sunny.


Feels Like: 53 °F
Forecast: 49 / 65 °F
Wind: 7 mph from West

Location: Wiesbaden Airport

Current Time: May 29, 2015 at 9:09:40 AM

Latest Report: May 29, 2015 at 7:58 AM


Visibility: N/A

Pressure: 29.94 "Hg

Humidity: 73%

Dew point: 47 °F

Location of Bingen am RheinLocation

Historic Weather in Bingen am Rhein — Graph

°F

Bingen am Rhein temperature yesterday

Maximum temperature yesterday: 71 °F (at 2:58 PM)
Minimum temperature yesterday: 39 °F (at 2:58 AM)
Average temperature yesterday: 55 °F

Past Weeks' High & Low Weather Summary

 TemperatureHumidityPressure
High73 °F (May 15, 4:58 PM)94% (May 26, 2:58 AM)30.34 "Hg (May 26, 2:58 AM)
Low39 °F (May 28, 2:58 AM)33% (May 18, 2:58 PM)29.67 "Hg (May 19, 1:58 AM)
Average57 °F63%30.06 "Hg
* Reported May 14 7:58 AM — May 29 7:58 AM, Bingen am Rhein, Weather by CustomWeather, © 2015

Note: Actual official high and low records may vary slightly from our data, if they occured in-between our weather recording intervals... More about our weather records

Advertising

Bingen am Rhein weather history for previous 24 hours

 ConditionsComfort  
Time TempWeatherWind HumidityBarometerVisibility
7:58 AM
Fri, May 29
55 °FSunny.7 mph73%29.94 "HgN/A
6:58 AM52 °FSunny.3 mph82%29.94 "HgN/A
5:58 AM50 °FPassing clouds.No wind82%29.94 "HgN/A
5:03 AM50 °FPartly cloudy.No wind88%29.94 "HgN/A
4:58 AM50 °FMostly cloudy.No wind88%29.94 "HgN/A
3:58 AM52 °FPassing clouds.1 mph82%29.95 "HgN/A
2:58 AM52 °FPassing clouds.2 mph82%29.96 "HgN/A
1:58 AM55 °FOvercast.3 mph72%29.97 "HgN/A
12:58 AM55 °FMostly cloudy.2 mph67%29.97 "HgN/A
11:58 PM
Thu, May 28
57 °FOvercast.5 mph64%29.97 "HgN/A
10:58 PM59 °FMostly cloudy.8 mph61%29.96 "HgN/A
9:58 PM61 °FBroken clouds.7 mph63%29.95 "HgN/A
8:58 PM61 °FScattered clouds.8 mph65%29.94 "HgN/A
7:58 PM64 °FPartly sunny.10 mph56%29.93 "HgN/A
7:00 PM66 °FScattered clouds.9 mph56%29.93 "HgN/A
5:58 PM68 °FMostly cloudy.12 mph46%29.93 "HgN/A
4:58 PM66 °FOvercast.13 mph49%29.95 "HgN/A
3:58 PM68 °FOvercast.15 mph44%29.95 "HgN/A
2:58 PM71 °FPartly sunny.17 mph44%29.96 "HgN/A
1:55 PM69 °FPartly sunny.14 mph47%29.97 "HgN/A
12:55 PM68 °FCloudy.15 mph46%30.00 "HgN/A
11:57 AM64 °FScattered clouds.12 mph52%30.03 "HgN/A
10:58 AM60 °FScattered clouds.6 mph59%30.05 "HgN/A
9:58 AM55 °FSunny.5 mph65%30.07 "HgN/A
Weather by CustomWeather, © 2015

See weather overviewHow to use our weather pages